Time,TemperatureF,DewpointF,PressureIn,WindDirection,WindDirectionDegrees,WindSpeedMPH,WindSpeedGustMPH,Humidity,HourlyPrecipIn,Conditions,Clouds,dailyrainin,SoftwareType,DateUTC
2013-05-29 07:31:00,68.9,38.6,29.85,NNE,31,1.0,1.0,33,0.00,,,0.00,Wunderground v.1.15,2013-05-29 14:31:00,
2013-05-29 07:40:00,69.4,38.2,29.85,East,89,0.0,0.0,32,0.00,,,0.00,Wunderground v.1.15,2013-05-29 14:40:00,
2013-05-29 07:50:00,70.0,38.8,29.85,ENE,72,1.0,3.0,32,0.00,,,0.00,Wunderground v.1.15,2013-05-29 14:50:00,
2013-05-29 08:01:00,71.2,39.0,29.85,ENE,71,1.0,2.0,31,0.00,,,0.00,Wunderground v.1.15,2013-05-29 15:01:00,
2013-05-29 08:10:00,71.1,38.9,29.85,NNE,33,1.0,1.0,31,0.00,,,0.00,Wunderground v.1.15,2013-05-29 15:10:00,
2013-05-29 08:20:00,71.6,38.5,29.86,NNW,339,1.0,1.0,30,0.00,,,0.00,Wunderground v.1.15,2013-05-29 15:20:00,
2013-05-29 08:30:00,72.2,39.0,29.86,NE,56,2.0,2.0,30,0.00,,,0.00,Wunderground v.1.15,2013-05-29 15:30:00,
2013-05-29 08:50:00,74.6,39.3,29.86,NNW,345,1.0,1.0,28,0.00,,,0.00,Wunderground v.1.15,2013-05-29 15:50:00,
2013-05-29 09:00:00,74.4,39.2,29.85,NNE,27,2.0,2.0,28,0.00,,,0.00,Wunderground v.1.15,2013-05-29 16:00:00,
2013-05-29 09:10:00,74.5,39.2,29.85,East,84,2.0,2.0,28,0.00,,,0.00,Wunderground v.1.15,2013-05-29 16:10:00,
2013-05-29 09:20:00,75.5,38.2,29.85,SSW,207,2.0,2.0,26,0.00,,,0.00,Wunderground v.1.15,2013-05-29 16:20:00,
2013-05-29 09:31:00,76.7,39.2,29.85,NNW,347,2.0,2.0,26,0.00,,,0.00,Wunderground v.1.15,2013-05-29 16:31:00,
2013-05-29 09:40:00,77.4,38.8,29.85,NNW,342,2.0,3.0,25,0.00,,,0.00,Wunderground v.1.15,2013-05-29 16:40:00,
2013-05-29 09:50:00,78.0,39.3,29.85,SSE,161,2.0,4.0,25,0.00,,,0.00,Wunderground v.1.15,2013-05-29 16:50:00,
2013-05-29 10:00:00,78.7,37.8,29.85,NE,41,2.0,2.0,23,0.00,,,0.00,Wunderground v.1.15,2013-05-29 17:00:00,
2013-05-29 10:10:00,78.6,37.7,29.85,WSW,254,2.0,2.0,23,0.00,,,0.00,Wunderground v.1.15,2013-05-29 17:10:00,
2013-05-29 10:20:00,79.2,38.2,29.85,East,90,2.0,3.0,23,0.00,,,0.00,Wunderground v.1.15,2013-05-29 17:20:00,
2013-05-29 10:31:00,79.4,38.4,29.85,ENE,72,4.0,4.0,23,0.00,,,0.00,Wunderground v.1.15,2013-05-29 17:31:00,
2013-05-29 10:40:00,80.5,37.0,29.84,ENE,70,2.0,2.0,21,0.00,,,0.00,Wunderground v.1.15,2013-05-29 17:40:00,
2013-05-29 10:50:00,81.3,37.6,29.84,ENE,70,2.0,2.0,21,0.00,,,0.00,Wunderground v.1.15,2013-05-29 17:50:00,
2013-05-29 11:00:00,81.2,36.3,29.84,ENE,64,3.0,3.0,20,0.00,,,0.00,Wunderground v.1.15,2013-05-29 18:00:00,
2013-05-29 11:10:00,81.5,37.8,29.84,SSE,151,3.0,4.0,21,0.00,,,0.00,Wunderground v.1.15,2013-05-29 18:10:00,
2013-05-29 11:20:00,82.8,36.3,29.83,East,88,3.0,5.0,19,0.00,,,0.00,Wunderground v.1.15,2013-05-29 18:20:00,
2013-05-29 11:30:00,83.3,36.7,29.83,NE,53,2.0,2.0,19,0.00,,,0.00,Wunderground v.1.15,2013-05-29 18:30:00,
2013-05-29 11:40:00,84.2,34.6,29.82,NE,51,2.0,4.0,17,0.00,,,0.00,Wunderground v.1.15,2013-05-29 18:40:00,
2013-05-29 11:50:00,85.3,35.5,29.81,ESE,119,4.0,5.0,17,0.00,,,0.00,Wunderground v.1.15,2013-05-29 18:50:00,
2013-05-29 12:00:00,85.4,32.5,29.81,NW,323,6.0,6.0,15,0.00,,,0.00,Wunderground v.1.15,2013-05-29 19:00:00,
2013-05-29 12:10:00,86.3,34.8,29.80,SW,221,4.0,10.0,16,0.00,,,0.00,Wunderground v.1.15,2013-05-29 19:10:00,
2013-05-29 12:20:00,86.3,33.2,29.80,South,170,6.0,9.0,15,0.00,,,0.00,Wunderground v.1.15,2013-05-29 19:20:00,
2013-05-29 12:30:00,86.6,31.7,29.79,SW,230,7.0,11.0,14,0.00,,,0.00,Wunderground v.1.15,2013-05-29 19:30:00,
2013-05-29 12:40:00,85.4,32.5,29.80,SW,231,6.0,10.0,15,0.00,,,0.00,Wunderground v.1.15,2013-05-29 19:40:00,
2013-05-29 12:50:00,86.9,32.0,29.79,WNW,291,7.0,7.0,14,0.00,,,0.00,Wunderground v.1.15,2013-05-29 19:50:00,
2013-05-29 13:00:00,87.8,32.7,29.79,WNW,285,7.0,7.0,14,0.00,,,0.00,Wunderground v.1.15,2013-05-29 20:00:00,
2013-05-29 13:10:00,87.1,32.1,29.79,NW,309,8.0,14.0,14,0.00,,,0.00,Wunderground v.1.15,2013-05-29 20:10:00,
2013-05-29 13:20:00,87.1,32.1,29.78,WSW,249,7.0,11.0,14,0.00,,,0.00,Wunderground v.1.15,2013-05-29 20:20:00,
2013-05-29 13:30:00,87.0,32.0,29.78,WNW,293,8.0,8.0,14,0.00,,,0.00,Wunderground v.1.15,2013-05-29 20:30:00,
2013-05-29 13:40:00,88.2,33.0,29.78,WNW,282,5.0,6.0,14,0.00,,,0.00,Wunderground v.1.15,2013-05-29 20:40:00,
2013-05-29 13:50:00,87.8,32.7,29.78,WSW,239,7.0,7.0,14,0.00,,,0.00,Wunderground v.1.15,2013-05-29 20:50:00,
2013-05-29 14:00:00,88.9,31.7,29.77,SSW,211,6.0,6.0,13,0.00,,,0.00,Wunderground v.1.15,2013-05-29 21:00:00,
2013-05-29 14:10:00,89.0,31.8,29.77,SW,235,6.0,6.0,13,0.00,,,0.00,Wunderground v.1.15,2013-05-29 21:10:00,
2013-05-29 14:20:00,88.4,33.1,29.77,SW,234,5.0,5.0,14,0.00,,,0.00,Wunderground v.1.15,2013-05-29 21:20:00,
2013-05-29 14:31:00,89.5,32.2,29.77,WNW,289,7.0,7.0,13,0.00,,,0.00,Wunderground v.1.15,2013-05-29 21:31:00,
2013-05-29 14:40:00,89.0,31.8,29.77,SSW,199,5.0,8.0,13,0.00,,,0.00,Wunderground v.1.15,2013-05-29 21:40:00,
2013-05-29 14:50:00,89.1,31.8,29.76,West,278,5.0,6.0,13,0.00,,,0.00,Wunderground v.1.15,2013-05-29 21:50:00,
2013-05-29 15:00:00,88.4,31.3,29.76,WNW,290,6.0,6.0,13,0.00,,,0.00,Wunderground v.1.15,2013-05-29 22:00:00,
2013-05-29 15:10:00,89.1,31.8,29.77,West,260,8.0,13.0,13,0.00,,,0.00,Wunderground v.1.15,2013-05-29 22:10:00,
2013-05-29 15:20:00,87.9,32.7,29.76,SW,224,6.0,9.0,14,0.00,,,0.00,Wunderground v.1.15,2013-05-29 22:20:00,
2013-05-29 15:30:00,88.7,31.5,29.76,WNW,290,6.0,6.0,13,0.00,,,0.00,Wunderground v.1.15,2013-05-29 22:30:00,
2013-05-29 15:40:00,87.9,32.7,29.75,WNW,297,6.0,6.0,14,0.00,,,0.00,Wunderground v.1.15,2013-05-29 22:40:00,
2013-05-29 15:50:00,88.0,32.8,29.75,SW,216,5.0,5.0,14,0.00,,,0.00,Wunderground v.1.15,2013-05-29 22:50:00,
2013-05-29 16:00:00,88.5,31.4,29.75,SSW,200,5.0,5.0,13,0.00,,,0.00,Wunderground v.1.15,2013-05-29 23:00:00,
2013-05-29 16:10:00,88.4,31.3,29.75,NW,307,6.0,6.0,13,0.00,,,0.00,Wunderground v.1.15,2013-05-29 23:10:00,
2013-05-29 16:20:00,88.3,31.2,29.75,West,262,6.0,7.0,13,0.00,,,0.00,Wunderground v.1.15,2013-05-29 23:20:00,
2013-05-29 16:31:00,87.7,30.7,29.75,SSE,163,7.0,8.0,13,0.00,,,0.00,Wunderground v.1.15,2013-05-29 23:31:00,
2013-05-29 16:40:00,87.9,30.9,29.75,West,281,7.0,7.0,13,0.00,,,0.00,Wunderground v.1.15,2013-05-29 23:40:00,
2013-05-29 16:50:00,87.3,30.4,29.75,NNW,337,7.0,12.0,13,0.00,,,0.00,Wunderground v.1.15,2013-05-29 23:50:00,
2013-05-29 17:00:00,86.8,30.0,29.75,WNW,296,8.0,8.0,13,0.00,,,0.00,Wunderground v.1.15,2013-05-30 00:00:00,
2013-05-29 17:10:00,86.4,31.6,29.75,WNW,303,8.0,10.0,14,0.00,,,0.00,Wunderground v.1.15,2013-05-30 00:10:00,
2013-05-29 17:20:00,86.6,29.9,29.75,SSW,200,7.0,7.0,13,0.00,,,0.00,Wunderground v.1.15,2013-05-30 00:20:00,
2013-05-29 17:30:00,86.8,31.9,29.75,West,270,6.0,9.0,14,0.00,,,0.00,Wunderground v.1.15,2013-05-30 00:30:00,
2013-05-29 17:40:00,86.3,31.5,29.75,WNW,296,5.0,5.0,14,0.00,,,0.00,Wunderground v.1.15,2013-05-30 00:40:00,
2013-05-29 17:50:00,86.2,31.4,29.75,West,277,6.0,11.0,14,0.00,,,0.00,Wunderground v.1.15,2013-05-30 00:50:00,
2013-05-29 18:00:00,85.4,32.5,29.76,SW,224,8.0,8.0,15,0.00,,,0.00,Wunderground v.1.15,2013-05-30 01:00:00,
2013-05-29 18:10:00,85.1,32.2,29.75,WNW,290,5.0,5.0,15,0.00,,,0.00,Wunderground v.1.15,2013-05-30 01:10:00,
2013-05-29 18:20:00,84.5,31.8,29.75,WNW,292,7.0,7.0,15,0.00,,,0.00,Wunderground v.1.15,2013-05-30 01:20:00,
2013-05-29 18:30:00,83.9,31.3,29.75,West,277,7.0,7.0,15,0.00,,,0.00,Wunderground v.1.15,2013-05-30 01:30:00,
2013-05-29 18:40:00,83.7,31.1,29.76,WNW,293,4.0,4.0,15,0.00,,,0.00,Wunderground v.1.15,2013-05-30 01:40:00,
2013-05-29 18:50:00,83.2,32.3,29.76,NW,307,4.0,4.0,16,0.00,,,0.00,Wunderground v.1.15,2013-05-30 01:50:00,
2013-05-29 19:01:00,81.4,30.9,29.76,SSW,207,4.0,4.0,16,0.00,,,0.00,Wunderground v.1.15,2013-05-30 02:01:00,
2013-05-29 19:10:00,80.6,31.7,29.76,WNW,287,5.0,5.0,17,0.00,,,0.00,Wunderground v.1.15,2013-05-30 02:10:00,
2013-05-29 19:20:00,80.0,31.2,29.76,NW,309,5.0,5.0,17,0.00,,,0.00,Wunderground v.1.15,2013-05-30 02:20:00,
2013-05-29 19:30:00,79.6,30.9,29.77,WNW,301,6.0,6.0,17,0.00,,,0.00,Wunderground v.1.15,2013-05-30 02:30:00,
2013-05-29 19:40:00,79.0,30.4,29.77,WNW,301,5.0,5.0,17,0.00,,,0.00,Wunderground v.1.15,2013-05-30 02:40:00,
2013-05-29 19:50:00,78.6,30.1,29.77,WNW,288,5.0,6.0,17,0.00,,,0.00,Wunderground v.1.15,2013-05-30 02:50:00,
2013-05-29 20:00:00,78.1,29.7,29.77,WNW,284,6.0,11.0,17,0.00,,,0.00,Wunderground v.1.15,2013-05-30 03:00:00,
2013-05-29 20:10:00,78.0,31.0,29.78,WNW,283,7.0,7.0,18,0.00,,,0.00,Wunderground v.1.15,2013-05-30 03:10:00,
2013-05-29 20:20:00,77.7,30.8,29.78,WNW,297,6.0,10.0,18,0.00,,,0.00,Wunderground v.1.15,2013-05-30 03:20:00,
2013-05-29 20:30:00,77.1,30.3,29.79,South,178,6.0,6.0,18,0.00,,,0.00,Wunderground v.1.15,2013-05-30 03:30:00,
2013-05-29 20:40:00,76.6,31.2,29.79,WSW,244,4.0,8.0,19,0.00,,,0.00,Wunderground v.1.15,2013-05-30 03:40:00,